Location: Browns Grove Cemetery
(38.1735°N, 99.5330°W)
Time: 07:32:34
(UTC+00:00)

Daily predictions for brighter satellites

Satellite Brightness Start Highest point End
(mag) Time Altitude Azimuth Time Altitude Azimuth Time Altitude Azimuth
Abrixas rocket 3.6 12:01:14 12° NNW 12:03:21 26° NNE 12:05:48 10° E
Aureole 3 3.8 12:00:23 10° N 12:04:44 80° W 12:10:20 10° S
ADEOS 4.2 12:00:14 10° N 12:04:52 33° WNW 12:09:29 10° SW
Cosmos 1484 Rocket 3.8 12:02:24 10° NNW 12:05:29 23° WNW 12:08:31 10° WSW
BREEZE-M DEB (TANK) 2.4 12:05:27 19° W 12:06:41 29° SW 12:08:38 10° SSE
Cosmos 1428 Rocket 4.5 12:01:39 10° SSW 12:07:49 64° W 12:13:59 10° N
Cosmos 407 Rocket 3.8 12:03:19 10° S 12:08:23 70° ESE 12:13:32 10° NNE
OE (NEXTSAT) 4.4 12:06:57 10° SW 12:10:25 77° SSE 12:13:54 10° ENE
H-2A R/B 3.4 12:07:02 10° NNE 12:10:49 60° E 12:14:37 10° S
Cosmos 1626 Rocket 4.0 12:07:57 10° S 12:12:21 67° E 12:16:48 10° NNE
Cosmos 1140 Rocket 4.1 12:08:03 10° S 12:13:06 61° ESE 12:18:09 10° NNE
Cosmos 1553 Rocket 4.2 12:07:13 10° N 12:13:20 74° E 12:19:23 10° SSE
PSLV R/B 3.9 12:09:20 10° S 12:13:30 71° WSW 12:17:43 10° NNW
Cosmos 2278 3.7 12:11:02 10° NNW 12:16:36 62° WSW 12:22:09 10° S
Okean O Rocket 4.1 12:14:44 10° NE 12:18:26 27° E 12:22:08 10° SSE
Cosmos 2322 Rocket 4.1 12:14:02 10° N 12:19:00 30° ENE 12:23:54 10° ESE
Cosmos 2026 Rocket 4.2 12:13:42 10° SSW 12:19:49 49° W 12:25:59 10° N
SL-27 R/B 3.9 12:17:10 10° S 12:20:36 44° ESE 12:24:04 10° NNE
Cosmos 1689 Rocket 2.6 12:18:01 10° S 12:20:47 37° W 12:23:31 10° NNW
Cosmos 1833 Rocket 4.2 12:17:49 10° W 12:21:21 17° NW 12:24:57 10° NNW
Meteor PRIRODA 4.0 12:18:23 10° N 12:21:51 42° WNW 12:25:20 10° SW
Gblst 52 Del rocket 4.3 12:17:33 10° SW 12:23:10 89° NW 12:29:30 10° NE
Meteor 2-10 Rocket 3.5 12:20:34 10° N 12:25:36 87° E 12:30:44 10° S
CZ-4B R/B 3.5 12:23:50 10° N 12:27:34 35° WNW 12:31:26 10° SW
Meteor 1-31 Rocket 4.3 12:27:15 10° NNW 12:29:54 18° WNW 12:32:33 10° WSW
Uosat 12 SS-18 rocket 4.4 12:27:57 10° SSW 12:32:54 81° ESE 12:37:18 10° NNE
ATLAS 3B R/B 3.6 12:28:41 10° W 12:34:06 27° NW 12:39:37 10° NNE
Meteor 2-15 4.5 12:29:55 10° N 12:36:02 87° W 12:42:05 10° S
CZ-4B R/B 4.3 12:32:20 10° NNE 12:37:31 49° E 12:42:36 10° S
